Time,TemperatureF,DewpointF,PressureIn,WindDirection,WindDirectionDegrees,WindSpeedMPH,WindSpeedGustMPH,Humidity,HourlyPrecipIn,Conditions,Clouds,dailyrainin,SoftwareType,DateUTC
2013-08-29 00:05:00,77.1,69.0,29.94,SE,140,0.0,0.0,76,0.00,,,0.00,weatherlink.com 1.10,2013-08-29 05:05:00,
2013-08-29 00:20:00,76.4,69.0,29.94,SE,140,0.0,0.0,77,0.00,,,0.00,weatherlink.com 1.10,2013-08-29 05:20:00,
2013-08-29 00:35:00,76.0,67.0,29.94,SE,140,0.0,0.0,74,0.00,,,0.00,weatherlink.com 1.10,2013-08-29 05:35:00,
2013-08-29 00:50:00,75.8,69.0,29.94,SE,140,0.0,0.0,78,0.00,,,0.00,weatherlink.com 1.10,2013-08-29 05:50:00,
2013-08-29 01:05:00,75.1,68.0,29.94,SE,140,0.0,0.0,79,0.00,,,0.00,weatherlink.com 1.10,2013-08-29 06:05:00,
2013-08-29 01:20:00,75.2,68.0,29.94,SE,140,0.0,1.0,79,0.00,,,0.00,weatherlink.com 1.10,2013-08-29 06:20:00,
2013-08-29 01:35:00,75.8,68.0,29.94,SE,140,1.0,2.0,76,0.00,,,0.00,weatherlink.com 1.10,2013-08-29 06:35:00,
2013-08-29 01:50:00,76.6,68.0,29.94,SE,140,3.0,3.0,74,0.00,,,0.00,weatherlink.com 1.10,2013-08-29 06:50:00,
2013-08-29 02:05:00,77.3,68.0,29.95,SE,140,2.0,4.0,73,0.00,,,0.00,weatherlink.com 1.10,2013-08-29 07:05:00,
2013-08-29 02:20:00,77.3,68.0,29.95,SE,140,0.0,3.0,73,0.00,,,0.00,weatherlink.com 1.10,2013-08-29 07:20:00,
2013-08-29 02:35:00,77.2,68.0,29.95,SE,140,0.0,2.0,74,0.00,,,0.00,weatherlink.com 1.10,2013-08-29 07:35:00,
2013-08-29 02:50:00,77.0,69.0,29.95,SE,140,2.0,4.0,75,0.00,,,0.00,weatherlink.com 1.10,2013-08-29 07:50:00,
2013-08-29 03:05:00,76.9,68.0,29.95,SE,140,0.0,2.0,75,0.00,,,0.00,weatherlink.com 1.10,2013-08-29 08:05:00,
2013-08-29 03:20:00,76.6,69.0,29.95,SE,140,0.0,3.0,76,0.00,,,0.00,weatherlink.com 1.10,2013-08-29 08:20:00,
2013-08-29 03:35:00,76.2,69.0,29.95,SE,140,0.0,0.0,78,0.00,,,0.00,weatherlink.com 1.10,2013-08-29 08:35:00,
2013-08-29 03:50:00,75.2,69.0,29.96,SE,140,0.0,1.0,80,0.00,,,0.00,weatherlink.com 1.10,2013-08-29 08:50:00,
2013-08-29 04:05:00,74.8,69.0,29.96,SE,140,0.0,1.0,81,0.00,,,0.00,weatherlink.com 1.10,2013-08-29 09:05:00,
2013-08-29 04:20:00,74.7,69.0,29.96,SE,140,0.0,2.0,82,0.00,,,0.00,weatherlink.com 1.10,2013-08-29 09:20:00,
2013-08-29 04:35:00,74.4,69.0,29.96,SE,140,0.0,0.0,82,0.00,,,0.00,weatherlink.com 1.10,2013-08-29 09:35:00,
2013-08-29 04:50:00,73.9,69.0,29.96,SE,140,0.0,0.0,85,0.00,,,0.00,weatherlink.com 1.10,2013-08-29 09:50:00,
2013-08-29 05:05:00,73.5,70.0,29.96,SE,140,0.0,0.0,87,0.00,,,0.00,weatherlink.com 1.10,2013-08-29 10:05:00,
2013-08-29 05:20:00,73.3,70.0,29.96,SE,140,0.0,0.0,88,0.00,,,0.00,weatherlink.com 1.10,2013-08-29 10:20:00,
2013-08-29 05:35:00,73.4,70.0,29.96,SE,140,0.0,0.0,88,0.00,,,0.00,weatherlink.com 1.10,2013-08-29 10:35:00,
2013-08-29 05:50:00,73.3,69.0,29.96,SE,140,0.0,0.0,87,0.00,,,0.00,weatherlink.com 1.10,2013-08-29 10:50:00,
2013-08-29 06:05:00,73.2,70.0,29.96,SE,140,0.0,0.0,88,0.00,,,0.00,weatherlink.com 1.10,2013-08-29 11:05:00,
2013-08-29 06:20:00,72.8,70.0,29.97,SE,140,0.0,0.0,89,0.00,,,0.00,weatherlink.com 1.10,2013-08-29 11:20:00,
2013-08-29 06:35:00,72.2,69.0,29.97,SE,140,0.0,0.0,89,0.00,,,0.00,weatherlink.com 1.10,2013-08-29 11:35:00,
2013-08-29 06:50:00,72.1,69.0,29.97,SE,140,0.0,0.0,91,0.00,,,0.00,weatherlink.com 1.10,2013-08-29 11:50:00,
2013-08-29 07:05:00,72.1,69.0,29.98,SE,140,0.0,0.0,91,0.00,,,0.00,weatherlink.com 1.10,2013-08-29 12:05:00,
2013-08-29 07:20:00,72.4,69.0,29.98,SE,140,0.0,0.0,90,0.00,,,0.00,weatherlink.com 1.10,2013-08-29 12:20:00,
2013-08-29 07:35:00,72.8,70.0,29.98,SE,140,0.0,1.0,90,0.00,,,0.00,weatherlink.com 1.10,2013-08-29 12:35:00,
2013-08-29 07:50:00,73.3,70.0,29.99,SE,140,0.0,0.0,90,0.00,,,0.00,weatherlink.com 1.10,2013-08-29 12:50:00,
2013-08-29 08:05:00,74.9,71.0,29.99,SE,140,0.0,0.0,87,0.00,,,0.00,weatherlink.com 1.10,2013-08-29 13:05:00,
2013-08-29 08:20:00,76.9,71.0,29.99,SE,140,0.0,2.0,83,0.00,,,0.00,weatherlink.com 1.10,2013-08-29 13:20:00,
2013-08-29 08:35:00,77.7,71.0,30.00,SE,140,0.0,2.0,80,0.00,,,0.00,weatherlink.com 1.10,2013-08-29 13:35:00,
2013-08-29 08:50:00,78.3,71.0,30.00,SE,140,0.0,1.0,79,0.00,,,0.00,weatherlink.com 1.10,2013-08-29 13:50:00,
2013-08-29 09:05:00,79.2,71.0,30.00,SE,140,2.0,3.0,77,0.00,,,0.00,weatherlink.com 1.10,2013-08-29 14:05:00,
2013-08-29 09:20:00,80.2,71.0,30.00,SE,140,1.0,3.0,74,0.00,,,0.00,weatherlink.com 1.10,2013-08-29 14:20:00,
2013-08-29 09:35:00,80.7,71.0,30.00,SE,140,2.0,5.0,73,0.00,,,0.00,weatherlink.com 1.10,2013-08-29 14:35:00,
2013-08-29 09:50:00,80.6,72.0,30.00,SE,136,0.0,4.0,74,0.00,,,0.00,weatherlink.com 1.10,2013-08-29 14:50:00,
2013-08-29 10:05:00,81.7,71.0,30.00,SE,136,0.0,4.0,71,0.00,,,0.00,weatherlink.com 1.10,2013-08-29 15:05:00,
2013-08-29 10:20:00,82.0,71.0,30.00,SE,134,0.0,3.0,70,0.00,,,0.00,weatherlink.com 1.10,2013-08-29 15:20:00,
2013-08-29 10:35:00,83.2,72.0,30.00,SE,131,0.0,4.0,69,0.00,,,0.00,weatherlink.com 1.10,2013-08-29 15:35:00,
2013-08-29 11:06:00,85.9,72.0,30.00,East,101,3.0,4.0,63,0.00,,,0.00,weatherlink.com 1.10,2013-08-29 16:06:00,
2013-08-29 11:21:00,87.1,72.0,30.00,East,101,5.0,5.0,61,0.00,,,0.00,weatherlink.com 1.10,2013-08-29 16:21:00,
2013-08-29 11:36:00,88.1,69.0,29.99,ESE,103,1.0,6.0,54,0.00,,,0.00,weatherlink.com 1.10,2013-08-29 16:36:00,
2013-08-29 11:51:00,88.8,68.0,29.98,SE,125,0.0,7.0,50,0.00,,,0.00,weatherlink.com 1.10,2013-08-29 16:51:00,
2013-08-29 12:06:00,90.2,69.0,29.98,SE,146,2.0,7.0,50,0.00,,,0.00,weatherlink.com 1.10,2013-08-29 17:06:00,
2013-08-29 12:21:00,90.2,67.0,29.98,SW,215,0.0,7.0,46,0.00,,,0.00,weatherlink.com 1.10,2013-08-29 17:21:00,
2013-08-29 12:36:00,91.2,66.0,29.97,South,188,0.0,9.0,43,0.00,,,0.00,weatherlink.com 1.10,2013-08-29 17:36:00,
2013-08-29 12:51:00,90.9,66.0,29.96,South,188,1.0,6.0,44,0.00,,,0.00,weatherlink.com 1.10,2013-08-29 17:51:00,
2013-08-29 13:06:00,91.5,68.0,29.95,South,188,5.0,5.0,46,0.00,,,0.00,weatherlink.com 1.10,2013-08-29 18:06:00,
2013-08-29 13:21:00,92.0,65.0,29.95,South,190,1.0,10.0,41,0.00,,,0.00,weatherlink.com 1.10,2013-08-29 18:21:00,
2013-08-29 13:36:00,92.2,67.0,29.94,South,179,2.0,7.0,44,0.00,,,0.00,weatherlink.com 1.10,2013-08-29 18:36:00,
2013-08-29 13:51:00,93.0,65.0,29.93,South,173,2.0,7.0,40,0.00,,,0.00,weatherlink.com 1.10,2013-08-29 18:51:00,
2013-08-29 14:06:00,93.7,64.0,29.93,South,190,4.0,9.0,37,0.00,,,0.00,weatherlink.com 1.10,2013-08-29 19:06:00,
2013-08-29 14:21:00,92.8,64.0,29.93,SSW,211,1.0,5.0,39,0.00,,,0.00,weatherlink.com 1.10,2013-08-29 19:21:00,
2013-08-29 14:36:00,94.2,64.0,29.92,South,180,3.0,8.0,37,0.00,,,0.00,weatherlink.com 1.10,2013-08-29 19:36:00,
2013-08-29 14:51:00,94.5,66.0,29.91,ENE,64,3.0,9.0,39,0.00,,,0.00,weatherlink.com 1.10,2013-08-29 19:51:00,
2013-08-29 15:06:00,95.3,66.0,29.91,SSE,152,0.0,8.0,38,0.00,,,0.00,weatherlink.com 1.10,2013-08-29 20:06:00,
2013-08-29 15:21:00,95.2,64.0,29.90,SE,145,3.0,10.0,36,0.00,,,0.00,weatherlink.com 1.10,2013-08-29 20:21:00,
2013-08-29 15:36:00,95.8,65.0,29.89,East,90,1.0,7.0,36,0.00,,,0.00,weatherlink.com 1.10,2013-08-29 20:36:00,
2013-08-29 15:51:00,95.7,65.0,29.88,SE,140,5.0,6.0,36,0.00,,,0.00,weatherlink.com 1.10,2013-08-29 20:51:00,
2013-08-29 16:07:00,95.8,62.0,29.88,East,92,2.0,8.0,33,0.00,,,0.00,weatherlink.com 1.10,2013-08-29 21:07:00,
2013-08-29 16:22:00,96.3,63.0,29.88,SSE,150,3.0,9.0,33,0.00,,,0.00,weatherlink.com 1.10,2013-08-29 21:22:00,
2013-08-29 16:37:00,96.5,65.0,29.87,ESE,109,3.0,7.0,35,0.00,,,0.00,weatherlink.com 1.10,2013-08-29 21:37:00,
2013-08-29 16:52:00,96.3,63.0,29.86,East,96,0.0,6.0,33,0.00,,,0.00,weatherlink.com 1.10,2013-08-29 21:52:00,
2013-08-29 17:07:00,96.1,64.0,29.86,SSE,160,3.0,6.0,34,0.00,,,0.00,weatherlink.com 1.10,2013-08-29 22:07:00,
2013-08-29 17:22:00,96.5,63.0,29.86,SE,140,2.0,6.0,33,0.00,,,0.00,weatherlink.com 1.10,2013-08-29 22:22:00,
2013-08-29 17:37:00,96.5,64.0,29.85,SSE,153,0.0,8.0,34,0.00,,,0.00,weatherlink.com 1.10,2013-08-29 22:37:00,
2013-08-29 17:52:00,96.1,64.0,29.85,SE,143,3.0,6.0,35,0.00,,,0.00,weatherlink.com 1.10,2013-08-29 22:52:00,
2013-08-29 18:07:00,95.7,62.0,29.85,SE,142,0.0,5.0,33,0.00,,,0.00,weatherlink.com 1.10,2013-08-29 23:07:00,
2013-08-29 18:22:00,95.7,63.0,29.85,SE,142,0.0,4.0,34,0.00,,,0.00,weatherlink.com 1.10,2013-08-29 23:22:00,
2013-08-29 18:37:00,96.1,63.0,29.85,NW,323,6.0,6.0,33,0.00,,,0.00,weatherlink.com 1.10,2013-08-29 23:37:00,
2013-08-29 18:52:00,95.3,64.0,29.85,SSW,202,0.0,5.0,35,0.00,,,0.00,weatherlink.com 1.10,2013-08-29 23:52:00,
2013-08-29 19:07:00,94.3,65.0,29.85,East,99,2.0,5.0,38,0.00,,,0.00,weatherlink.com 1.10,2013-08-30 00:07:00,
2013-08-29 19:22:00,92.6,66.0,29.85,East,84,1.0,5.0,41,0.00,,,0.00,weatherlink.com 1.10,2013-08-30 00:22:00,
2013-08-29 19:37:00,91.3,66.0,29.86,East,80,1.0,3.0,44,0.00,,,0.00,weatherlink.com 1.10,2013-08-30 00:37:00,
2013-08-29 19:52:00,90.1,66.0,29.86,East,79,0.0,3.0,45,0.00,,,0.00,weatherlink.com 1.10,2013-08-30 00:52:00,
2013-08-29 20:07:00,88.8,66.0,29.86,East,79,0.0,1.0,47,0.00,,,0.00,weatherlink.com 1.10,2013-08-30 01:07:00,
2013-08-29 20:22:00,87.5,66.0,29.86,East,79,1.0,2.0,49,0.00,,,0.00,weatherlink.com 1.10,2013-08-30 01:22:00,
2013-08-29 20:37:00,86.4,66.0,29.87,East,79,0.0,1.0,50,0.00,,,0.00,weatherlink.com 1.10,2013-08-30 01:37:00,
2013-08-29 20:52:00,85.6,65.0,29.87,East,79,0.0,0.0,51,0.00,,,0.00,weatherlink.com 1.10,2013-08-30 01:52:00,
2013-08-29 21:07:00,84.7,65.0,29.87,East,79,0.0,0.0,52,0.00,,,0.00,weatherlink.com 1.10,2013-08-30 02:07:00,
2013-08-29 21:22:00,83.6,66.0,29.87,East,79,0.0,0.0,56,0.00,,,0.00,weatherlink.com 1.10,2013-08-30 02:22:00,
2013-08-29 21:37:00,82.3,67.0,29.88,East,79,0.0,0.0,61,0.00,,,0.00,weatherlink.com 1.10,2013-08-30 02:37:00,
2013-08-29 21:52:00,81.2,69.0,29.88,East,79,0.0,0.0,67,0.00,,,0.00,weatherlink.com 1.10,2013-08-30 02:52:00,
2013-08-29 22:07:00,80.2,69.0,29.88,East,79,0.0,0.0,68,0.00,,,0.00,weatherlink.com 1.10,2013-08-30 03:07:00,
2013-08-29 22:22:00,79.4,67.0,29.88,East,79,0.0,2.0,65,0.00,,,0.00,weatherlink.com 1.10,2013-08-30 03:22:00,
2013-08-29 22:37:00,79.5,67.0,29.88,East,79,0.0,0.0,66,0.00,,,0.00,weatherlink.com 1.10,2013-08-30 03:37:00,
2013-08-29 22:52:00,79.3,68.0,29.88,East,79,0.0,0.0,69,0.00,,,0.00,weatherlink.com 1.10,2013-08-30 03:52:00,
2013-08-29 23:07:00,78.8,66.0,29.89,East,79,0.0,0.0,64,0.00,,,0.00,weatherlink.com 1.10,2013-08-30 04:07:00,
2013-08-29 23:22:00,78.4,68.0,29.89,East,79,0.0,1.0,71,0.00,,,0.00,weatherlink.com 1.10,2013-08-30 04:22:00,
2013-08-29 23:37:00,78.0,69.0,29.89,East,79,0.0,0.0,73,0.00,,,0.00,weatherlink.com 1.10,2013-08-30 04:37:00,
2013-08-29 23:52:00,77.3,70.0,29.89,East,79,0.0,0.0,77,0.00,,,0.00,weatherlink.com 1.10,2013-08-30 04:52:00,